Hourly Data Report for November 29, 2005

TORONTO CITY
ONTARIO

43°40'00.000" N
79°24'00.000" W
112.50 m
6158355
71508
XTO

Download Data

Hourly Data (November 2005)
Hourly Data Report for November 29, 2005
TIME
LST
Temp Definition
°C
Dew Point Definition
°C
Rel Hum Definition
%
Precip. Amount Definition
mm

Wind Dir Definition
10's deg

Wind Spd Definition
km/h
Visibility Definition
km
Stn Press Definition
kPa
Hmdx Definition


Wind Chill Definition


Weather Definition


00:00 12.4 11.3 93   LegendMM LegendMM   99.16     LegendNANA
01:00 12.3 11.0 92   LegendMM LegendMM   99.06     LegendNANA
02:00 13.9 12.0 88   LegendMM LegendMM   98.98     LegendNANA
03:00 16.8 12.8 77   LegendMM LegendMM   98.88     LegendNANA
04:00 13.8 12.0 89   LegendMM LegendMM   98.98     LegendNANA
05:00 12.6 11.7 94   LegendMM LegendMM   98.95     LegendNANA
06:00 12.5 11.1 91   LegendMM LegendMM   98.93     LegendNANA
07:00 11.5 10.3 92   LegendMM LegendMM   99.02     LegendNANA
08:00 10.1 9.5 96   LegendMM LegendMM   99.10     LegendNANA
09:00 9.8 9.5 98   LegendMM LegendMM   99.18     LegendNANA
10:00 9.7 9.5 99   LegendMM LegendMM   99.17     LegendNANA
11:00 9.4 9.3 99   LegendMM LegendMM   99.19     LegendNANA
12:00 9.0 8.8 99   LegendMM LegendMM   99.16     LegendNANA
13:00 8.9 8.7 99   LegendMM LegendMM   99.28     LegendNANA
14:00 9.2 8.8 97   LegendMM LegendMM   99.14     LegendNANA
15:00 9.2 8.7 97   LegendMM LegendMM   99.06     LegendNANA
16:00 9.0 8.1 94   LegendMM LegendMM   99.17     LegendNANA
17:00 8.7 7.5 92   LegendMM LegendMM   99.19     LegendNANA
18:00 8.9 6.2 83   LegendMM LegendMM   99.25     LegendNANA
19:00 8.8 6.9 88   LegendMM LegendMM   99.22     LegendNANA
20:00 8.8 6.1 83   LegendMM LegendMM   99.32     LegendNANA
21:00 7.5 1.5 66   LegendMM LegendMM   99.43     LegendNANA
22:00 6.7 0.0 62   LegendMM LegendMM   99.53     LegendNANA
23:00 6.0 -0.1 65   LegendMM LegendMM   99.64     LegendNANA

Notes on Data Quality.

Legend

  • E = Estimated
  • M = Missing
  • NA = Not Available*
  • [empty] = Indicates an unobserved value
Date modified: